Hourly Data Report for September 16, 2017

All times are specified in Local Standard Time (LST). Add 1 hour to adjust for Daylight Saving Time where and when it is observed.

SATURNA ISLAND CS
BRITISH COLUMBIA

48°47'02.067" N
123°02'41.082" W
24.40 m
1017101
71473
WEZ

Download Data

Hourly Data (September 2017)
Hourly Data Report for September 16, 2017
Temp Definition
°C
Dew Point Temp Definition
°C
Rel Hum Definition
%
Wind Dir Definition
10's deg

Wind Spd Definition
km/h
Visibility Definition
km
Stn Press Definition
kPa
Hmdx Definition


Wind Chill Definition


Weather Definition


TIME
00:00 15.1 5.8 54 23 13   101.28     LegendNANA
01:00 14.6 6.4 58 24 12   101.28     LegendNANA
02:00 14.0 6.9 62 23 20   101.29     LegendNANA
03:00 13.2 7.7 69 23 17   101.32     LegendNANA
04:00 13.4 6.7 64 22 13   101.32     LegendNANA
05:00 13.4 7.8 69 16 5   101.31     LegendNANA
06:00 12.8 7.7 71 20 4   101.35     LegendNANA
07:00 13.3 7.6 68 0 1   101.38     LegendNANA
08:00 13.7 8.7 72 19 7   101.41     LegendNANA
09:00 14.1 9.6 74 22 8   101.40     LegendNANA
10:00 14.1 8.2 68 16 4   101.38     LegendNANA
11:00 16.4 7.8 57 9 3   101.35     LegendNANA
12:00 18.2 8.1 52 3 5   101.31     LegendNANA
13:00 18.4 6.7 46 4 3   101.24     LegendNANA
14:00 20.0 4.5 36 5 6   101.16     LegendNANA
15:00 19.4 7.9 47 1 4   101.09     LegendNANA
16:00 18.0 7.0 49 34 6   101.06     LegendNANA
17:00 18.0 3.1 37 12 4   100.99     LegendNANA
18:00 18.1 2.3 35 0 1   100.93     LegendNANA
19:00 17.2 3.3 40 18 4   100.89     LegendNANA
20:00 17.3 3.7 40 0 1   100.87     LegendNANA
21:00 15.2 6.2 55 22 14   100.87     LegendNANA
22:00 14.1 6.4 60 23 10   100.85     LegendNANA
23:00 14.5 5.0 53 22 10   100.81     LegendNANA

Notes on Data Quality.

Legend

  • E = Estimated
  • M = Missing
  • NA = Not Available
  • ‡ = Partner data that is not subject to review by the National Climate Archives
Date modified: